TITAN 3C TRANSTAGE DEB, 59982

Orbit data source: Space-Track

TITAN 3C TRANSTAGE DEB, 59982 is space debris in GEO originally from a launch on Thu, 26 Sep 1968 UTC launched from the Air Force Eastern Test Range (AFETR). Debris objects in space refer to the collection of defunct objects orbiting the Earth. Examples of debris include non-operational satellites, rocket bodies, and fragments generated from explosions, collisions, or faulty payload assembly.

Loading next visibility...
Identifier
59982, 1968-081AQ
Orbit
GEO
Country
Flag of USUS
Related business
Manufacturer
Unknown
Mission
Spacecraft
Bus & Motor
Unknown
Mass
Unknown
Launch date (UTC)
1968-09-26 (57 years ago)
Launch vehicle
Unknown
Launch site
Air Force Eastern Test Range (AFETR)
Object type
Payload
Rocket body
Debris
Shape & HBR
Unknown shape, 1.1 m
Radar Cross Section
RCS unknown

Expand to show TLE details & history
Last TLE update: 4 months ago

TLE from 4 months ago
0 TITAN 3C TRANSTAGE DEB
1 59982U 68081AQ  25213.47915794  .00000028  00000-0  00000-0 0  9995
2 59982   1.7209   4.5143 0751163 286.3550  65.9913  0.99565661 15920
Epoch: 2025-08-01T11:29Z
TLE epoch observation values (Epoch: 2025-08-01T11:29:59.246Z)
Latitude
-0°
Longitude
-117.7911°
Altitude
34,889.562 km
Speed
3.148 km/s
True Right ascension
00h 20m 08s
True Declination
0° 00' 00"
Sunlit
Object was in daylight at epoch
Visualization orbit readout
Latitude
Unknown
Longitude
Unknown
Altitude
Unknown
Speed
Unknown
Apparent Right ascension
Unknown
Apparent Declination
Unknown
Sunlit
N/A
Visualization observer readout
Local Sidereal Time
06:30:01
Azimuth
Unknown
Elevation
Unknown
Doppler factor
Unknown
Orbital elements
Apogee altitude
39,169.086 km
Perigee altitude
32,804.493 km
Semi-major axis
42,364.926 km
Eccentricity
0.07512
Inclination
1.7209°
RAAN
4.5143°
Arg. of periapsis
286.355°
True anomaly
74.13843°
Mean anomaly
65.9913°
Eccentric anomaly
70.03653°
Mean motion
0.2489 °/min
Orbital period
1,446.34 mins
BSTAR
0
Loading maneuver chart data...
Computing Atmospheric mass density...

Documentation

Showing up to 5 results
|